Other Public Products
Issued by NWS Grand Forks, ND

Home | Current Version | Previous Version | Graphics & Text | Print | Product List | Glossary On
Versions: 1 2 3 4 5 6 7 8 9 10 11 12 13 14 15 16 17 18 19 20 21 22 23 24 25 26 27 28 29 30 31 32 33 34 35 36 37 38 39 40 41 42 43 44 45 46 47 48 49 50
000
FPUS83 KFGF 052031
OPUFGF
PRAIRIE TO PINES WEATHER ROUNDUP
NATIONAL WEATHER SERVICE EASTERN NORTH DAKOTA/GRAND FORKS ND
300 PM CDT TUE MAY 05 2015

 **SATELLITE DATA USED TO AUGMENT SKY COVER AT AUTOMATED STATIONS**
 *****  WEATHER ACROSS EASTERN NORTH DAKOTA  *****

CITY           SKY/WX    TMP DP  RH WIND       PRES   REMARKS
GRAND FORKS    MOSUNNY   77  20  12 S13G26    30.03F
GRAND FORKS AF MOSUNNY   77  22  13 S17G24    30.04F
GRAND CITY NWS   N/A     75 N/A N/A S16         N/A
BUXTON           N/A     76  27  16 CALM        N/A
DEVILS LAKE    PTSUNNY   73  30  20 S18G25    30.00F
FARGO          SUNNY     79  23  12 SE17G35   30.04F
WAHPETON ARPT  CLEAR     73  30  20 SE20      30.03F
$$

 *****  WEATHER ACROSS CENTRAL AND WESTERN NORTH DAKOTA  *****

CITY           SKY/WX    TMP DP  RH WIND       PRES   REMARKS
JAMESTOWN      SUNNY     77  24  14 SE20G28   29.99F
BISMARCK       SUNNY     75  26  16 SE22G35   29.95F
MINOT          SUNNY     76  31  19 SE20G31   29.91F
MINOT AFB      MOSUNNY   78  33  19 S25G37    29.90F
GARRISON         N/A     75  31  19 S26G33    29.92F
WILLISTON      SUNNY     80  42  25 S18G26    29.81F
DICKINSON      SUNNY     73  48  41 S31G39    29.87F
HETTINGER      PTSUNNY   69  49  48 SE24G33   29.92F
$$

 *****  OTHER OBSERVATIONS NORTHEAST NORTH DAKOTA  *****

CITY           SKY/WX    TMP DP  RH WIND       PRES   REMARKS
WALHALLA       FAIR      73  28  19 SE14G23   30.02F
LANGDON        FAIR      75  28  17 S20G26    30.02F
CAVALIER       FAIR      75  27  16 S20G28    30.02F
GRAFTON        FAIR      75  23  14 S16G25    30.04F
CANDO          FAIR      73  28  19 S18G31    30.00F
FORT TOTTEN      N/A     72  26  18 S13       29.95
ROLLA          NOT AVBL
RUGBY          NOT AVBL
 ***** THE ABOVE OBSERVATIONS ARE NON NWS ARE NOT QUALITY
        CONTROLLED AND MAY MIS-REPORT RAIN FOR SNOW...
$$

 *****  OTHER OBSERVATIONS SOUTHEAST NORTH DAKOTA *****

CITY           SKY/WX    TMP DP  RH WIND       PRES   REMARKS
COOPERSTOWN    NOT AVBL
VALLEY CITY    FAIR      75  27  16 S21G26    30.01F
OAKES            N/A     75  34  22 SE22G30   30.00F
GWINNER        CLEAR     79  36  21 SE20      30.02F
BUFFALO        NOT AVBL
WYNDMERE       NOT AVBL
 ***** THE ABOVE OBSERVATIONS ARE NON NWS ARE NOT QUALITY
       CONTROLLED AND MAY MIS-REPORT RAIN FOR SNOW...
$$

  *****  WEATHER ACROSS NORTHERN MINNESOTA  *****

CITY           SKY/WX    TMP DP  RH WIND       PRES   REMARKS
FLAG ISLAND    SUNNY     64  34  32 S3        30.11F
WARROAD        SUNNY     72  30  21 S13G22    30.10F
ROSEAU         SUNNY     75  16  10 S13G18    30.08F
HALLOCK        SUNNY     77   0   5 S23G30    30.03F
THF RVR FALLS  SUNNY     75  21  13 S14       30.07F
HALSTAD          N/A     77  25  14 S12G24      N/A
FOSSTON        SUNNY     75  19  12 SE14G20   30.08F
BAUDETTE       SUNNY     73  24  16 S10G22    30.11F
WASKISH        SUNNY     73  28  19 E3        30.11F
CROOKSTON      SUNNY     77  25  14 S17G26    30.05F
$$
  *****  WEATHER ACROSS CENTRAL AND WEST MINNESOTA  *****

CITY           SKY/WX    TMP DP  RH WIND       PRES   REMARKS
BEMIDJI        SUNNY     74  27  17 SE13      30.11F
PARK RAPIDS    SUNNY     75  29  18 S16G22    30.10F
WADENA         SUNNY     73  41  31 SE18G24   30.09F
DETROIT LAKES  SUNNY     73  30  20 S17G26    30.09F
MOORHEAD       SUNNY     75  21  13 SE15G22   30.04F
FERGUS FALLS   SUNNY     75  39  27 S18G28    30.06F
ELBOW LAKE     FAIR      74  44  33 SE18      30.06F
MORRIS MN      PTSUNNY   75  46  35 SE23G29   30.05F
STAPLES        SUNNY     72  37  28 SE15G21   30.11F
WHEATON        MOSUNNY   72  46  40 SE21G30   30.05S
$$
  *****  WEATHER ELSEWHERE ACROSS MINNESOTA  *****

CITY           SKY/WX    TMP DP  RH WIND       PRES   REMARKS
DULUTH         SUNNY     69  28  21 E12       30.19F
INTRNTL FALLS  SUNNY     72  22  15 SE13G21   30.13F
ELY            SUNNY     70  18  13 SE14      30.18F
CLOQUET        SUNNY     70  27  19 E9G16     30.17F
BRAINERD       SUNNY     72  35  25 S8G22     30.14F
HIBBING        SUNNY     72  22  15 S10G22    30.17F
ALEXANDRIA     SUNNY     72  44  36 SE21G31   30.10F
SAINT CLOUD    SUNNY     74  44  34 SE20G26   30.12F
MINNEAPOLIS    PTSUNNY   67  47  48 S18G24    30.17S
$$

  *****  WEATHER ACROSS SOUTH DAKOTA  *****

CITY           SKY/WX    TMP DP  RH WIND       PRES   REMARKS
SIOUX FALLS    CLOUDY    69  56  62 SE10G18   30.03F
BROOKINGS      PTSUNNY   68  55  64 SE18      30.05S
WATERTOWN      CLOUDY    72  53  51 SE17G26   30.03F
HURON            N/A     73  50  44 S14G28    29.99F
SISSETON         N/A     79  40  24 S22G29    30.01F
ABERDEEN       SUNNY     78  41  26 SE18G32   29.99F
MITCHELL       CLOUDY    68  53  58 S13       30.01F
PIERRE         CLOUDY    68  50  52 SE18G29   29.96F
MOBRIDGE       SUNNY     78  41  26 SE24G31   29.93F
RAPID CITY     CLOUDY    61  49  64 S18G28    29.93F
$$

  *****  SOME WEATHER IN NEARBY STATES *****

CITY           SKY/WX    TMP DP  RH WIND       PRES   REMARKS
GLASGOW MT     MOSUNNY   77  39  25 SE14      29.72F
GREAT FALLS MT CLOUDY    70  33  25 CALM      29.73F
CHEYENNE WY    LGT RAIN  47  46  97 SE14G20   29.93F VSB 1/16
SCOTTSBLUFF NE CLOUDY    60  49  66 SE20      29.92F
OMAHA NE       CLOUDY    76  60  57 SE13      30.04F
DES MOINES IA  PTSUNNY   79  61  53 SE9       30.08F
DAVENPORT IA   CLOUDY    67  61  81 NE13      30.17S HAZE
CHICAGO IL     FOG       50  49  96 NE10      30.22F VSB 1/4
EAU CLAIRE WI  MOSUNNY   69  32  25 SE14G20   30.20F
LA CROSSE WI   LGT RAIN  58  51  78 SE10G20   30.22F
$$

  *****  SOME NATIONAL WEATHER *****

CITY           SKY/WX    TMP DP  RH WIND       PRES   REMARKS
LA GUARDIA NY  PTSUNNY   80  54  40 S8        30.15F
RALEIGH NC     MOSUNNY   82  58  43 VRB3      30.26F
ATLANTA GA     MOSUNNY   80  52  37 SE10      30.25F
NEW ORLEANS LA PTSUNNY   83  60  45 SE13G23   30.13F
OKLAHOMA CITY  LGT RAIN  66  62  87 SE10      29.99F FOG
ALBUQUERQUE NM LGT RAIN  57  43  59 W9        29.93S
SALT LAKE CITY CLOUDY    62  45  53 W6        29.83F
LOS ANGELES CA PTSUNNY   62  49  62 W13       29.99F
BOISE ID       SUNNY     67  28  23 NW18      29.86F
SEATTLE WA     PTSUNNY   55  43  63 S16G28    30.07S
$$

*** WEATHER ACROSS MANITOBA...SASKATCHEWAN AND ONTARIO ***
                ***ONTARIO***

CITY           SKY/WX    TMP DP  RH WIND       PRES   REMARKS
GERALDTON      MOSUNNY   64  30  27 W9        30.22F
THUNDER BAY    MOSUNNY   70  27  19 S18G25    30.23F
SIOUX LOOKOUT  MOSUNNY   70  34  26 SW10G17   30.15F
TORONTO        CLOUDY    61  43  51 SE8       30.28F
BIG TROUT LK   SUNNY     48  19  32 NW12G17   30.17F
PICKLE LAKE    PTSUNNY   59  30  33 CALM      30.17F
DRYDEN         SUNNY     70  27  19 S14G21    30.15F
KENORA         MOSUNNY   70  30  23 S8G22     30.14F
$$
                *** MANITOBA***

CITY           SKY/WX    TMP DP  RH WIND       PRES   REMARKS
BRANDON        MOSUNNY   73  36  25 S21G32    29.95F
DAUPHIN        PTSUNNY   75  34  22 SW15G23   29.91F
ISLAND LAKE    LGT RAIN  36  34  93 S3        30.21S
PILOT MOUND      N/A     75  27  16 S23G30      N/A
THE PAS        PTSUNNY   41  37  87 E13G21    30.09F
THOMPSON       MOSUNNY   48  19  32 CALM      30.17S
WINNIPEG       PTSUNNY   75  23  14 S20G29    30.04F
LYNN LAKE      SUNNY     46  18  31 E7        30.15S
CHURCHILL      MOSUNNY   23  14  68 NW20G26   30.23R WCI   8
GILLAM         MOSUNNY   41  19  42 W12       30.20S
$$
                ***SASKATCHEWAN***

CITY           SKY/WX    TMP DP  RH WIND       PRES   REMARKS
ESTEVAN        MOSUNNY   75  39  27 SE22G29   29.85F
KINDERSLEY     PTSUNNY   72  30  21 VRB2      29.68F
LLOYDMINSTER   PTSUNNY   63  41  45 E21       29.72F
PRINCE ALBERT  PTSUNNY   59  37  44 E22G29    29.86F
REGINA         MOSUNNY   77  39  25 S18G30    29.77F
YORKTON        SUNNY     75  34  22 S16G22    29.84F



USA.gov is the U.S. government's official web portal to all federal, state and local government web resources and services.